Amsterdam, Netherlands

8:09 AM CEST on October 17, 2017 (GMT +0200)
Amsterdam

Weather History for 06240 - August, 2013

Change the Weather History Date:

Tuesday, August 27, 2013

  Actual Average Record
Temperature  
Mean Temperature 65 °F -  
Max Temperature 75 °F 64 °F - ()
Min Temperature 55 °F 51 °F - ()
Growing Degree Days 15 (Base 50)    
Moisture  
Dew Point 52 °F    
Average Humidity 61    
Maximum Humidity 88    
Minimum Humidity 25    
Precipitation  
Precipitation 0.00 in - - ()
Sea Level Pressure  
Sea Level Pressure 30.02 in    
Wind  
Wind Speed 7 mph ()    
Max Wind Speed 12 mph    
Max Gust Speed -    
Visibility 17.7 miles    
Events      
T = Trace of Precipitation, MM = Missing Value Source: Averaged Metar Reports

Daily Weather History Graph

Daily Weather History Graph

Search for Another Location

Airport or City:

Trip Planner

Search our weather history database for the weather conditions in past years. The results will help you decide how hot, cold, wet, or windy it might be!

Date:

Astronomy

Aug. 27, 2013 Rise Set
Actual Time 6:44 AM CEST 8:39 PM CEST
Civil Twilight 6:07 AM CEST 9:15 PM CEST
Nautical Twilight 5:22 AM CEST 10:00 PM CEST
Astronomical Twilight 4:30 AM CEST 10:51 PM CEST
Moon 11:24 PM CEST (8/27) 2:23 PM CEST (8/27)
Length of Visible Light 15h 08m
Length of Day
13h 55m
Waning Gibbous, 60% of the Moon is Illuminated
Aug 27
Waning Gibbous
Aug 28
Last Quarter
Sep 5
New
Sep 12
First Quarter
Sep 19
Full

Hourly Weather History & Observations

Time (CEST) Temp. Dew Point Humidity Pressure Visibility Wind Dir Wind Speed Gust Speed Precip Events Conditions
12:25 AM 60.8 °F 55.4 °F 82% 30.04 in - NE 6.9 mph - N/A   Clear
12:55 AM 60.8 °F 53.6 °F 77% 30.04 in - ENE 9.2 mph - N/A   Clear
1:25 AM 60.8 °F 53.6 °F 77% 30.04 in - NE 9.2 mph - N/A   Clear
1:55 AM 59.0 °F 51.8 °F 77% 30.04 in - ENE 8.1 mph - N/A   Clear
2:00 AM 58 °F 51 °F 71% 30.05 in 28 mi ENE 8.9 mph - -   Partly Cloudy
2:25 AM 59.0 °F 51.8 °F 77% 30.04 in - NE 8.1 mph - N/A   Clear
2:55 AM 59.0 °F 51.8 °F 77% 30.04 in - NE 8.1 mph - N/A   Clear
3:25 AM 57.2 °F 51.8 °F 82% 30.04 in - NE 6.9 mph - N/A   Clear
3:55 AM 57.2 °F 51.8 °F 82% 30.01 in - NE 6.9 mph - N/A   Clear
4:25 AM 57.2 °F 51.8 °F 82% 30.01 in - NE 8.1 mph - N/A   Clear
4:55 AM 57.2 °F 51.8 °F 82% 30.01 in - NE 5.8 mph - N/A   Clear
5:00 AM 57 °F 51 °F 73% 30.03 in 28 mi NE 6.7 mph - -   Scattered Clouds
5:25 AM 57.2 °F 51.8 °F 82% 30.01 in - NE 4.6 mph - N/A   Clear
5:55 AM 57.2 °F 51.8 °F 82% 30.01 in - NNE 3.5 mph - N/A   Clear
6:25 AM 55.4 °F 51.8 °F 88% 30.01 in - NE 4.6 mph - N/A   Clear
6:55 AM 57.2 °F 51.8 °F 82% 30.01 in - NE 3.5 mph - N/A   Clear
7:25 AM 57.2 °F 51.8 °F 82% 30.01 in - NE 4.6 mph - N/A   Clear
7:55 AM 57.2 °F 51.8 °F 82% 30.04 in - NE 5.8 mph - N/A   Clear
8:00 AM 58 °F 52 °F 73% 30.04 in 25 mi NE 6.7 mph - -   Partly Cloudy
8:25 AM 59.0 °F 51.8 °F 77% 30.04 in - NE 6.9 mph - N/A   Clear
8:55 AM 60.8 °F 51.8 °F 72% 30.04 in - ENE 6.9 mph - N/A   Clear
9:25 AM 62.6 °F 53.6 °F 72% 30.04 in - ENE 5.8 mph - N/A   Clear
9:55 AM 64.4 °F 53.6 °F 68% 30.04 in - ENE 5.8 mph - N/A   Clear
10:25 AM 66.2 °F 53.6 °F 64% 30.04 in - NE 6.9 mph - N/A   Clear
10:55 AM 68.0 °F 53.6 °F 60% 30.04 in - NE 5.8 mph - N/A   Clear
11:00 AM 68 °F 53 °F 49% 30.04 in 19 mi NE 6.7 mph - -   Scattered Clouds
11:25 AM 69.8 °F 51.8 °F 53% 30.01 in - NE 5.8 mph - N/A   Clear
11:55 AM 71.6 °F 51.8 °F 50% 30.01 in - ENE 6.9 mph - N/A   Clear
12:25 PM 73.4 °F 50.0 °F 44% 30.01 in - NE 9.2 mph - N/A   Clear
12:55 PM 73.4 °F 50.0 °F 44% 30.01 in - East 11.5 mph - N/A   Clear
1:25 PM 73.4 °F 51.8 °F 47% 30.01 in - East 9.2 mph - N/A   Clear
1:55 PM 73.4 °F 51.8 °F 47% 30.01 in - ENE 6.9 mph - N/A   Clear
2:25 PM 73.4 °F 51.8 °F 47% 30.01 in - ENE 9.2 mph - N/A   Clear
2:55 PM 71.6 °F 50.0 °F 46% 30.01 in - ENE 8.1 mph - N/A   Clear
3:25 PM 75.2 °F 48.2 °F 38% 30.01 in - NE 8.1 mph - N/A   Clear
3:55 PM 75.2 °F 48.2 °F 38% 30.01 in - NNE 9.2 mph - N/A   Clear
4:00 PM 75 °F 48 °F 27% 30.01 in 22 mi NE 11.2 mph - -  
4:25 PM 71.6 °F 44.6 °F 38% 29.98 in - NNE 10.4 mph - N/A   Clear
4:55 PM 75.2 °F 44.6 °F 34% 30.01 in - North 9.2 mph - N/A   Clear
5:00 PM 74 °F 45 °F 25% 30.01 in 22 mi North 8.9 mph - -   Scattered Clouds
5:25 PM 73.4 °F 46.4 °F 38% 29.98 in - NNE 9.2 mph - N/A   Clear
5:55 PM 73.4 °F 48.2 °F 41% 30.01 in - NNE 6.9 mph - N/A   Clear
6:00 PM 73 °F 48 °F 30% 30.01 in 25 mi NNE 11.2 mph - -   Scattered Clouds
6:25 PM 73.4 °F 48.2 °F 41% 29.98 in - NE 9.2 mph - N/A   Clear
6:55 PM 71.6 °F 48.2 °F 43% 30.01 in - NNE 9.2 mph - N/A   Clear
7:00 PM 72 °F 48 °F 31% 30.01 in 22 mi NNE 8.9 mph - -  
7:25 PM 69.8 °F 50.0 °F 49% 30.01 in - NNE 9.2 mph - N/A   Clear
7:55 PM 69.8 °F 48.2 °F 46% 30.01 in - NNE 8.1 mph - N/A   Clear
8:00 PM 69 °F 49 °F 37% 30.02 in 25 mi NNE 8.9 mph - -   Partly Cloudy
8:25 PM 68.0 °F 50.0 °F 52% 30.01 in - NNE 9.2 mph - N/A   Clear
8:55 PM 68.0 °F 51.8 °F 56% 30.01 in - North 9.2 mph - N/A   Clear
9:00 PM 67 °F 53 °F 51% 30.03 in 25 mi North 8.9 mph - -  
9:25 PM 66.2 °F 55.4 °F 68% 30.04 in - North 9.2 mph - N/A   Clear
9:55 PM 64.4 °F 57.2 °F 77% 30.04 in - North 8.1 mph - N/A   Clear
10:00 PM 65 °F 57 °F 69% 30.05 in 19 mi NNE 4.6 mph - -  
10:25 PM 64.4 °F 57.2 °F 77% 30.04 in - North 8.1 mph - N/A   Clear
10:55 PM 64.4 °F 57.2 °F 77% 30.04 in - North 6.9 mph - N/A   Clear
11:00 PM 64 °F 58 °F 74% 30.06 in 15 mi North 6.7 mph - -   Scattered Clouds
11:25 PM 64.4 °F 57.2 °F 77% 30.04 in - NNE 6.9 mph - N/A   Clear
11:55 PM 62.6 °F 57.2 °F 82% 30.04 in - NNE 5.8 mph - N/A   Clear